Flag for Canada Weather past 2 weeks in Quispamsis, New Brunswick, Canada

Now
64 °F

Clear.


Feels Like: 64 °F
Forecast: 54 / 72 °F
Wind: 16 mph from Northwest

Location: Saint John

Current Time: Sep 1, 2015 at 3:19:22 AM

Latest Report: Sep 1, 2015 at 2:00 AM


Visibility: 15 mi

Pressure: 29.81 "Hg

Humidity: 73%

Dew point: 55 °F

Location of QuispamsisLocation

Historic Weather in Quispamsis — Graph

°F

Quispamsis temperature yesterday

Maximum temperature yesterday: 73 °F (at 4:00 PM)
Minimum temperature yesterday: 54 °F (at 3:55 AM)
Average temperature yesterday: 63 °F

Past Weeks' High & Low Weather Summary

 TemperatureHumidityPressure
High81 °F (Aug 18, 3:00 PM)100% (Aug 17, 3:00 AM)30.23 "Hg (Aug 17, 3:00 AM)
Low46 °F (Aug 29, 6:00 AM)44% (Aug 28, 4:00 PM)29.70 "Hg (Aug 31, 8:00 PM)
Average67 °F89%30.03 "Hg
* Reported Aug 17 2:00 AM — Sep 1 2:00 AM, Quispamsis, Weather by CustomWeather, © 2015

Note: Actual official high and low records may vary slightly from our data, if they occured in-between our weather recording intervals... More about our weather records

Advertising

Quispamsis weather history for previous 24 hours

 ConditionsComfort  
Time TempWeatherWind HumidityBarometerVisibility
2:00 AM
Tue, Sep 1
64 °FClear.16 mph73%29.81 "Hg15 mi
1:00 AM66 °FClear.9 mph68%29.81 "Hg15 mi
12:00 AM68 °FClear.8 mph64%29.80 "Hg15 mi
11:00 PM
Mon, Aug 31
70 °FPassing clouds.16 mph69%29.77 "Hg15 mi
10:00 PM72 °FPassing clouds.13 mph69%29.75 "Hg15 mi
9:00 PM61 °FPassing clouds.6 mph94%29.72 "Hg15 mi
8:00 PM64 °FPassing clouds.5 mph88%29.70 "Hg15 mi
7:00 PM68 °FBroken clouds.7 mph78%29.71 "Hg15 mi
6:00 PM70 °FBroken clouds.20 mph69%29.71 "Hg15 mi
5:00 PM72 °FBroken clouds.14 mph69%29.72 "Hg15 mi
4:00 PM73 °FBroken clouds.16 mph69%29.74 "Hg15 mi
3:00 PM70 °FPartly sunny.15 mph78%29.77 "Hg15 mi
2:00 PM72 °FPartly sunny.17 mph73%29.79 "Hg15 mi
1:00 PM70 °FPartly sunny.14 mph73%29.82 "Hg15 mi
12:00 PM72 °FPartly sunny.15 mph69%29.84 "Hg15 mi
11:00 AM66 °FBroken clouds.7 mph83%29.86 "Hg15 mi
10:00 AM61 °FBroken clouds.8 mph94%29.87 "Hg15 mi
9:00 AM63 °FBroken clouds.9 mph100%29.88 "Hg15 mi
8:00 AM55 °FFog.5 mph100%29.90 "Hg0 mi
7:00 AM54 °FFog.5 mph100%29.91 "Hg0 mi
6:48 AM55 °FFog.5 mph100%29.91 "Hg0 mi
6:00 AM54 °FFog.3 mph100%29.91 "Hg1 mi
4:00 AM54 °FFog.3 mph100%29.93 "Hg1 mi
3:55 AM54 °FFog.3 mph100%29.93 "Hg1 mi
3:00 AM55 °FFog.5 mph100%29.94 "Hg0 mi
Weather by CustomWeather, © 2015

See weather overviewHow to use our weather pages